Regional Weather Roundup
Issued by NWS Mt. Holly, NJ

Home | Current Version | Previous Version | Text Only | Print | Product List | Glossary On
Versions: 1 2 3 4 5 6 7 8 9 10 11 12 13 14 15 16 17 18 19 20 21 22 23 24 25 26 27 28 29 30 31 32 33 34 35 36 37 38 39 40 41 42 43 44 45 46 47 48 49 50
000
ASUS41 KPHI 191211
RWRPHI

REGIONAL WEATHER ROUNDUP
NATIONAL WEATHER SERVICE MOUNT HOLLY NJ
800 AM EDT SUN APR 19 2015

NOTE:  "FAIR" INDICATES FEW OR NO CLOUDS BELOW 12,000 FEET WITH NO
SIGNIFICANT WEATHER AND/OR OBSTRUCTIONS TO VISIBILITY.

 * = STATION DOES NOT REPORT PRECIPITATION (E.G. RAIN, SNOW, ETC.)
        OR FOG.

NJZ015>026-191300-
SOUTHERN NEW JERSEY

CITY           SKY/WX    TMP DP  RH WIND       PRES   REMARKS
POMONA         MOSUNNY   52  40  63 E21       30.21R
6HR MIN TEMP:  51; 6HR MAX TEMP:  58;

MILLVILLE      PTSUNNY   54  40  59 E12       30.20R
WRIGHTSTOWN    MOSUNNY   53  40  60 E10       30.19R
MOUNT HOLLY    PTSUNNY   53  39  59 E7G17     30.22R
TRENTON        MOSUNNY   54  32  43 E5        30.23R
6HR MIN TEMP:  50; 6HR MAX TEMP:  61;


$$
NJZ001>014-191300-
NORTHERN NEW JERSEY

CITY           SKY/WX    TMP DP  RH WIND       PRES   REMARKS
SUSSEX         MOSUNNY   48  32  53 NE15      30.26R
ANDOVER*         N/A     50  30  46 VRB6      30.24R
MORRISTOWN     PTSUNNY   52  28  40 NE6       30.24R
NEWARK         PTSUNNY   55  29  36 NE10      30.24R
TETERBORO      MOSUNNY   53  27  36 NE9       30.23R
CALDWELL       MOSUNNY   52  27  38 NE10      30.25R
SOMERVILLE     MOSUNNY   54  26  34 NE9       30.22R
ALLAIRE*       MOSUNNY   50  37  62 E12       30.24R
TOMS RIVER*    MOSUNNY   52  39  62 E9        30.24R

$$
PAZ043-044-047-054-055-060>062-066>071-191300-
EASTERN PENNSYLVANIA

CITY           SKY/WX    TMP DP  RH WIND       PRES   REMARKS
PHILADELPHIA   PTSUNNY   56  37  49 E10       30.22R
6HR MIN TEMP:  56; 6HR MAX TEMP:  65;

NORTH PHILA    PTSUNNY   56  34  43 E13       30.24R
BLUE BELL      PTSUNNY   55  28  35 E8        30.21R
DOYLESTOWN     PTSUNNY   52  24  33 VRB5      30.22R
QUAKERTOWN*    PTSUNNY   52  27  37 E7        30.23R
POTTSTOWN      PTSUNNY   53  26  35 E7        30.23R
LANCASTER      PTSUNNY   52  33  48 NE8       30.18R
COATESVILLE    PTSUNNY   54  27  35 E13G23    30.20R
READING        PTSUNNY   54  27  35 VRB3      30.20R
6HR MIN TEMP:  51; 6HR MAX TEMP:  59;

ALLENTOWN      PTSUNNY   52  29  41 E6        30.23R
6HR MIN TEMP:  43; 6HR MAX TEMP:  56;

MOUNT POCONO   MOSUNNY   45  23  42 SE9       30.21R
6HR MIN TEMP:  40; 6HR MAX TEMP:  48;

HAZLETON       PTSUNNY   46  23  39 E6        30.23R
WILKES BARRE   MOSUNNY   47  27  45 CALM      30.22R

$$
DEZALL-MDZ008-012-015-019-020-191300-
DELAWARE AND EASTERN MARYLAND

CITY           SKY/WX    TMP DP  RH WIND       PRES   REMARKS
WILMINGTON     PTSUNNY   56  32  40 E16       30.20R
6HR MIN TEMP:  54; 6HR MAX TEMP:  63;

DOVER          PTSUNNY   54  46  74 E15G22    30.16R
GEORGETOWN     MOSUNNY   55  43  63 E13       30.18R
6HR MIN TEMP:  54; 6HR MAX TEMP:  61;

PATUXENT       PTSUNNY   58  41  53 E10       30.14R
OCEAN CITY     PTSUNNY   53  45  74 NE14      30.15R
WALLOPS ISLAND PTSUNNY   58  48  69 NE18      30.13R
SALISBURY      PTSUNNY   56  43  61 E10       30.14R

$$
PAZ001-021-NYZ056-072-MDZ011-DCZ001-191300-
OTHER NEARBY LOCATIONS

CITY           SKY/WX    TMP DP  RH WIND       PRES   REMARKS
HARRISBURG     CLOUDY    55  27  34 CALM      30.18S
STATE COLLEGE  SUNNY     48  28  46 NE9       30.20R
WILLIAMSPORT   PTSUNNY   46  30  53 N3        30.22R
BINGHAMTON     SUNNY     41  27  57 E7        30.21R
NEW YORK CITY  MOSUNNY   54  26  34 VRB7      30.26R
BALTIMORE      CLOUDY    59  34  39 E14       30.16R
WASHINGTON DC  CLOUDY    63  36  36 NE9       30.15R

$$


USA.gov is the U.S. government's official web portal to all federal, state and local government web resources and services.